User: anonymous   Login
Location: Borea
(45.6167°N, 23.0167°E)
Time: 21:47:13
(UTC+00:00)
Language:

NOAA 12 DEB - Orbit

View from above orbital plane
View from above orbital plane
View from above satellite
View from above satellite

Ground track
Ground track

The orbit data is extracted from the following two-line orbital elements,

1 37831U 91032D   24058.14455623  .00010007  00000-0  24140-2 0  9997
2 37831  98.2306 106.4059 0006295  85.8828 338.7292 14.53352852651923
Epoch (UTC): 27 February 2024 03:28:09
Eccentricity: 0.0006295
inclination: 98.2306°
perigee height: 710 km
apogee height: 719 km
right ascension of ascending node: 106.4059°
argument of perigee: 85.8828°
revolutions per day: 14.53352852
mean anomaly at epoch: 338.7292°
orbit number at epoch: 65192

The dashed part of the orbit path shows where the satellite is in the earth's shadow,  

DLR